Tracking 32214 objects as of 19-Nov-2025
HD Live streaming from Space Station
objects crossing your sky now

STARLINK-3664

Track STARLINK-3664 now!
10-day predictions
STARLINK-3664 is classified as:


NORAD ID: 51984
Int'l Code: 2022-025AE
Perigee: 546.0 km
Apogee: 547.8 km
Inclination: 53.2 °
Period: 95.4 minutes
Semi major axis: 6917 km
RCS: Unknown
Launch date: March 9, 2022
Source: United States (US)
Launch site: AIR FORCE EASTERN TEST RANGE (AFETR)
Your satellite tracking list
Your tracking list is empty




NASA's NSSDC Master Catalog

Two Line Element Set (TLE):
1 51984U 22025AE  25322.63105510  .00001621  00000-0  11991-3 0  9997
2 51984  53.2179 177.7715 0001296  61.4761 298.6361 15.08844697204298
Source of the keplerian elements: AFSPC